This demonstration page uses our WeatherBlox Daily Observations layout. Learn more.

Left ArrowRight Arrow

40.92945, -100.16068

Hourly Observations for August 26, 2020

Temp ( °F °C ) Dew Point ( °F °C ) Humidity (%) Winds ( mph kmh ) Pressure ( in mb ) Visibility ( mi km ) Precip ( " mm )
12:15 am 00:15 Clear 75 24.1 55 12.6 49 49 S 15 24 29.83 1010 10 16 N/A
12:35 am 00:35 Clear 75 23.8 55 12.5 49 49 S 16 26 29.82 1010 10 16 N/A
12:55 am 00:55 Clear 74 23.5 54 12.4 50 50 S 15 24 29.82 1010 10 16 N/A
1:15 am 01:15 Clear 74 23.2 54 12.2 50 50 S 12 19 29.83 1010 10 16 N/A
1:35 am 01:35 Clear 74 23.2 54 12 49 49 S 14 22 29.84 1010 10 16 N/A
1:55 am 01:55 Clear 73 22.6 54 12.2 52 52 S 12 19 29.84 1011 10 16 N/A
2:15 am 02:15 Clear 72 22.2 54 12.4 54 54 S 10 17 29.83 1010 10 16 N/A
2:35 am 02:35 Clear 71 21.9 55 12.5 55 55 S 12 19 29.84 1010 10 16 N/A
2:55 am 02:55 Clear 71 21.7 55 12.5 56 56 S 14 22 29.84 1010 10 16 N/A
3:15 am 03:15 Clear 71 21.6 55 12.5 56 56 S 13 20 29.84 1010 10 16 N/A
3:35 am 03:35 Clear 70 21.3 55 12.6 58 58 S 12 19 29.84 1011 10 16 N/A
3:55 am 03:55 Clear 71 21.6 55 12.5 56 56 S 12 19 29.84 1010 10 16 N/A
4:15 am 04:15 Clear 71 21.6 55 12.5 56 56 S 14 22 29.84 1010 10 16 N/A
4:35 am 04:35 Clear 71 21.7 55 12.5 56 56 S 14 22 29.83 1010 10 16 N/A
4:55 am 04:55 Clear 70 21.1 55 12.5 58 58 S 10 17 29.82 1010 10 16 N/A
5:15 am 05:15 Clear 70 20.9 55 12.5 59 59 S 12 19 29.82 1010 10 16 N/A
5:35 am 05:35 Clear 69 20.7 55 12.5 60 60 S 7 11 29.83 1010 10 16 N/A
5:55 am 05:55 Clear 69 20.5 55 12.5 60 60 S 8 13 29.83 1010 10 16 N/A
6:15 am 06:15 Clear 69 20.3 55 12.5 61 61 S 8 13 29.83 1010 10 16 N/A
6:35 am 06:35 Clear 68 20 55 12.6 63 63 S 12 19 29.83 1010 10 16 N/A
6:55 am 06:55 Clear 67 19.7 55 12.7 64 64 S 10 17 29.83 1010 10 16 N/A
7:15 am 07:15 Sunny 67 19.5 55 12.7 65 65 S 9 15 29.84 1010 10 16 N/A
7:35 am 07:35 Sunny 67 19.5 55 12.8 65 65 S 9 15 29.84 1010 10 16 N/A
7:55 am 07:55 Sunny 69 20.4 55 12.8 62 62 S 10 17 29.83 1010 10 16 N/A
8:15 am 08:15 Sunny 70 21 55 13 60 60 S 10 17 29.83 1010 10 16 N/A
8:35 am 08:35 Sunny 72 22 56 13.1 57 57 S 10 17 29.83 1010 10 16 N/A
8:55 am 08:55 Sunny 73 23 56 13.1 54 54 SSW 12 19 29.81 1009 10 16 N/A
9:15 am 09:15 Sunny 75 23.7 56 13.1 52 52 SSW 14 22 29.80 1009 10 16 N/A
9:35 am 09:35 Sunny 76 24.3 56 13.3 50 50 SSW 15 24 29.79 1009 10 16 N/A
9:55 am 09:55 Sunny 77 25.1 56 13.5 49 49 SSW 14 22 29.78 1008 10 16 N/A
10:15 am 10:15 Sunny 79 26 56 13.5 46 46 S 17 28 29.76 1008 10 16 N/A
10:35 am 10:35 Sunny 80 26.9 56 13.5 44 44 S 20 31 29.75 1008 7 11 N/A
10:55 am 10:55 Sunny 82 27.7 57 13.8 42 42 SSW 17 28 29.74 1007 10 16 N/A
11:15 am 11:15 Sunny 83 28.6 57 13.9 41 41 S 21 33 29.73 1007 10 16 N/A
11:35 am 11:35 Sunny 86 29.8 58 14.4 39 39 S 18 30 29.71 1006 10 16 N/A
11:55 am 11:55 Sunny 86 30.1 58 14.2 38 38 SSW 24 39 29.71 1006 10 16 N/A
12:15 pm 12:15 Sunny 87 30.6 58 14.2 37 37 SSW 24 39 29.70 1006 10 16 N/A
12:35 pm 12:35 Sunny 89 31.4 57 14.1 35 35 SSW 20 31 29.69 1005 10 16 N/A
12:55 pm 12:55 Sunny 89 31.8 58 14.7 35 35 SSW 17 28 29.69 1005 10 16 N/A
1:15 pm 13:15 Sunny 91 32.5 59 14.8 34 34 S 14 22 29.69 1005 10 16 N/A
1:35 pm 13:35 Sunny 91 33 58 14.7 33 33 SSW 16 26 29.68 1005 10 16 N/A
1:55 pm 13:55 Sunny 92 33.6 59 14.9 32 32 SSW 14 22 29.67 1005 10 16 N/A
2:15 pm 14:15 Sunny 93 33.9 58 14.5 31 31 S 16 26 29.66 1004 10 16 N/A
2:35 pm 14:35 Sunny 93 34.1 58 14.7 31 31 SSW 15 24 29.66 1004 10 16 N/A
2:55 pm 14:55 Sunny 95 35 58 14.7 30 30 S 16 26 29.64 1004 10 16 N/A
3:15 pm 15:15 Sunny 95 35.2 58 14.4 29 29 SSW 15 24 29.63 1003 10 16 N/A
3:35 pm 15:35 Sunny 96 35.5 58 14.7 29 29 S 16 26 29.63 1003 10 16 N/A
3:55 pm 15:55 Sunny 96 35.7 59 14.8 29 29 S 16 26 29.62 1003 10 16 N/A
4:15 pm 16:15 Sunny 96 35.8 58 14.2 27 27 SSW 16 26 29.61 1003 10 16 N/A
4:35 pm 16:35 Sunny 96 35.7 57 14 27 27 SSW 17 28 29.61 1003 10 16 N/A
4:55 pm 16:55 Sunny 97 36.1 57 13.8 26 26 S 15 24 29.60 1002 10 16 N/A
5:15 pm 17:15 Sunny 96 35.7 56 13.2 26 26 SSW 16 26 29.60 1002 10 16 N/A
5:35 pm 17:35 Sunny 95 35.2 57 14.1 28 28 SSW 13 20 29.61 1003 10 16 N/A
5:55 pm 17:55 Sunny 96 35.3 58 14.6 29 29 S 10 17 29.61 1003 10 16 N/A
6:15 pm 18:15 Sunny 94 34.7 59 14.8 30 30 S 9 15 29.61 1003 10 16 N/A
6:35 pm 18:35 Sunny 94 34.5 58 14.7 30 30 S 8 13 29.61 1003 10 16 N/A
6:55 pm 18:55 Sunny 92 33.4 61 16.1 35 35 SSE 9 15 29.61 1003 10 16 N/A
7:15 pm 19:15 Sunny 90 32.1 61 15.9 38 38 SSE 10 17 29.62 1003 10 16 N/A
7:35 pm 19:35 Sunny 88 31.1 61 16 40 40 SSE 7 11 29.63 1003 10 16 N/A
7:55 pm 19:55 Sunny 86 30.1 61 16 43 43 SSE 8 13 29.64 1004 10 16 N/A
8:15 pm 20:15 Sunny 84 28.8 61 16.1 46 46 SE 6 9 29.66 1004 10 16 N/A
8:35 pm 20:35 Clear 84 28.7 62 16.7 48 48 SE 8 13 29.65 1004 10 16 N/A
8:55 pm 20:55 Clear 82 27.5 63 17.3 54 54 SSE 9 15 29.66 1004 10 16 N/A
9:15 pm 21:15 Clear 79 26.3 63 17.1 57 57 SSE 9 15 29.68 1005 10 16 N/A
9:35 pm 21:35 Clear 79 25.9 62 16.7 57 57 SSE 8 13 29.69 1006 10 16 N/A
9:55 pm 21:55 Clear 77 25.2 62 16.6 59 59 SSE 8 13 29.70 1006 10 16 N/A
10:15 pm 22:15 Clear 77 25 62 16.5 59 59 SSE 8 13 29.71 1006 10 16 N/A
10:35 pm 22:35 Clear 78 25.5 61 16.3 57 57 SSE 8 13 29.72 1006 10 16 N/A
10:55 pm 22:55 Clear 79 26 61 16.1 54 54 SSE 9 15 29.71 1006 10 16 N/A
11:15 pm 23:15 Clear 78 25.5 61 16.1 56 56 SSE 10 17 29.72 1006 10 16 N/A
11:35 pm 23:35 Clear 79 25.9 61 16 54 54 SSE 10 17 29.71 1006 10 16 N/A
11:55 pm 23:55 Clear 79 26.2 60 15.6 52 52 SSE 13 20 29.72 1006 10 16 N/A

Powered by AerisWeather